Voltar ao catálogo

DELTA 1 DEB

AtivoSSO
NORAD 21366·DEBRIS·🇺🇸 United States

Lançado Jun 12, 1975 de Vandenberg Space Force Base

Loading…

Próximas Passagens (próximas 24 horas)

TLE

AtualizadoSource: Space-Track

Época: Sep 14, 2026, 11:13 UTC

1 21366U 75052CL  26257.46795235  .00000068  00000-0  18984-3 0  9997
2 21366  99.6378 110.7720 0022475  97.5903  19.9011 13.43850167729853

Acompanhe DELTA 1 DEB em tempo real com AllMySat

Download on the App Store